Location: London
(51.5074°N, 0.1278°W)
Time: 15:08:30
(UTC+01:00)

ISS - Pass Details

Date: 31 March 2018
Orbit: 403 x 406 km, 51.6° (Epoch: 22 April)

Event Time Altitude Azimuth Distance (km) Brightness Sun altitude
Rises 19:56:15 0° 249° (WSW) 2,328 1.1 -4.5°
Reaches altitude 10° 19:58:20 10° 246° (WSW) 1,470 -0.1 -4.9°
Maximum altitude 20:01:36 68° 164° (SSE) 445 -3.7 -5.3°
Drops below altitude 10° 20:04:54 10° 81° (E) 1,475 -1.6 -5.8°
Enters shadow 20:05:41 - 80° (E) 1,798 -1.1 -6.0°
